TimeEDT,TemperatureF,Dew PointF,Humidity,Sea Level PressureIn,VisibilityMPH,Wind Direction,Wind SpeedMPH,Gust SpeedMPH,PrecipitationIn,Events,Conditions,WindDirDegrees,DateUTC
12:54 AM,53.1,44.1,71,29.97,10.0,SW,4.6,-,N/A,,Clear,230,2013-10-08 04:54:00
1:54 AM,53.1,43.0,69,29.99,10.0,WSW,8.1,-,N/A,,Mostly Cloudy,250,2013-10-08 05:54:00
2:54 AM,52.0,44.1,74,30.02,10.0,SW,6.9,-,N/A,,Overcast,230,2013-10-08 06:54:00
3:54 AM,51.1,44.1,77,30.04,10.0,WSW,8.1,-,N/A,,Partly Cloudy,250,2013-10-08 07:54:00
4:54 AM,50.0,44.1,80,30.07,10.0,WSW,5.8,-,N/A,,Clear,240,2013-10-08 08:54:00
5:54 AM,48.0,42.1,80,30.11,10.0,Variable,6.9,-,N/A,,Clear,0,2013-10-08 09:54:00
6:54 AM,45.0,42.1,90,30.14,10.0,Calm,Calm,-,N/A,,Clear,0,2013-10-08 10:54:00
7:54 AM,46.0,43.0,89,30.19,10.0,Calm,Calm,-,N/A,,Clear,0,2013-10-08 11:54:00
8:54 AM,50.0,43.0,77,30.22,10.0,Calm,Calm,-,N/A,,Clear,0,2013-10-08 12:54:00
9:54 AM,53.1,39.0,59,30.25,10.0,Variable,4.6,-,N/A,,Clear,0,2013-10-08 13:54:00
10:54 AM,55.0,37.0,51,30.28,10.0,North,6.9,-,N/A,,Clear,360,2013-10-08 14:54:00
11:54 AM,57.0,36.0,45,30.28,10.0,North,6.9,-,N/A,,Clear,360,2013-10-08 15:54:00
12:54 PM,59.0,37.0,44,30.29,10.0,NW,6.9,16.1,N/A,,Clear,310,2013-10-08 16:54:00
1:54 PM,59.0,37.0,44,30.28,10.0,Calm,Calm,-,N/A,,Clear,0,2013-10-08 17:54:00
2:54 PM,61.0,36.0,39,30.28,10.0,NW,8.1,-,N/A,,Clear,320,2013-10-08 18:54:00
3:54 PM,61.0,37.0,41,30.27,10.0,NNW,3.5,-,N/A,,Clear,330,2013-10-08 19:54:00
4:54 PM,61.0,36.0,39,30.29,10.0,NNW,4.6,-,N/A,,Clear,330,2013-10-08 20:54:00
5:54 PM,55.0,37.9,53,30.29,10.0,Calm,Calm,-,N/A,,Clear,0,2013-10-08 21:54:00
6:54 PM,46.9,42.1,83,30.31,10.0,Calm,Calm,-,N/A,,Clear,0,2013-10-08 22:54:00
7:54 PM,45.0,41.0,86,30.32,10.0,Calm,Calm,-,N/A,,Clear,0,2013-10-08 23:54:00
8:54 PM,43.0,39.0,86,30.35,10.0,Calm,Calm,-,N/A,,Clear,0,2013-10-09 00:54:00
9:54 PM,43.0,37.9,82,30.37,10.0,Calm,Calm,-,N/A,,Clear,0,2013-10-09 01:54:00
10:54 PM,39.9,37.0,89,30.38,10.0,Calm,Calm,-,N/A,,Clear,0,2013-10-09 02:54:00
11:54 PM,39.9,36.0,86,30.39,10.0,Calm,Calm,-,N/A,,Clear,0,2013-10-09 03:54:00